Overview Statistics Trail Chart Weather Telemetry Raw packets
 

This is the latest recevied weather packets stored in our database for station/object KC2GYU. If no packets are shown the sender has not sent any weather packets the latest 10 day(s).

<< 38 39 40 41 42 43 44 >>
Time Temp. Humidity Pressure Rain* Wind** Luminosity Snow
1777826911 12.78° C 48% 1014.2 hPa 0 mm - 281 W/m² -
1777826608 13.33° C 48% 1014.5 hPa 0 mm - 459 W/m² -
1777826304 12.22° C 49% 1014.9 hPa 0 mm - 874 W/m² -
1777826002 11.67° C 51% 1014.6 hPa 0 mm - 272 W/m² -
1777825698 11.67° C 50% 1014.7 hPa 0 mm - 258 W/m² -
1777825397 11.67° C 52% 1014.6 hPa 0 mm - 263 W/m² -
1777825094 12.78° C 49% 1014.4 hPa 0 mm - 329 W/m² -
1777824789 11.67° C 52% 1014.7 hPa 0 mm - 814 W/m² -
1777824487 12.22° C 50% 1014.7 hPa 0 mm - 190 W/m² -
1777824182 12.78° C 49% 1014.6 hPa 0 mm - 328 W/m² -
1777823878 12.78° C 47% 1014.5 hPa 0 mm - 223 W/m² -
1777823576 13.33° C 47% 1014.7 hPa 0 mm - 292 W/m² -
1777823273 12.22° C 53% 1014.8 hPa 0 mm - 725 W/m² -
1777822970 12.22° C 49% 1014.8 hPa 0 mm - 663 W/m² -
1777822669 11.67° C 51% 1014.8 hPa 0 mm - 337 W/m² -
1777822366 11.67° C 50% 1014.7 hPa 0 mm - 810 W/m² -
1777822063 12.78° C 49% 1014.8 hPa 0 mm - 184 W/m² -
1777821762 12.78° C 48% 1014.9 hPa 0 mm - 325 W/m² -
1777821458 12.78° C 51% 1015 hPa 0 mm - 375 W/m² -
1777821156 12.78° C 49% 1014.9 hPa 0 mm - 351 W/m² -
1777820852 12.78° C 54% 1014.9 hPa 0 mm - 629 W/m² -
1777820548 11.11° C 54% 1014.9 hPa 0 mm - 370 W/m² -
1777820245 11.11° C 56% 1015 hPa 0 mm - 177 W/m² -
1777819943 11.67° C 57% 1014.7 hPa 0 mm - 184 W/m² -
1777819640 11.11° C 55% 1014.8 hPa 0 mm - 288 W/m² -

* Rain latest hour (hover to see other rain measurements)
** Current wind speed in m/s (hover to see current wind gust speed)